• In Deutschland
  • Länderverzeichnis
  • Für 7 Tage
  • Wassertemperatur
  • Satellitenkarten
  • Wetterkarte
  • Widgets
  • user-avatar
    Anmelden

    Stündliche Wetter Graz

    Heute, 18 Oktober, Mittwoch

    Zeit Temperatur Niederschläge Wind Luftdruck Luftfeuchtigkeit
    00:00 +13°C° 0 mm 1 m/S 727 mmHg 77%
    01:00 +12°C° 0 mm 1 m/S 727 mmHg 78%
    02:00 +12°C° 0 mm 1 m/S 726 mmHg 79%
    03:00 +12°C° 0 mm 1 m/S 726 mmHg 80%
    04:00 +12°C° 0 mm 1 m/S 726 mmHg 81%
    05:00 +12°C° 0 mm 1 m/S 725 mmHg 81%
    06:00 +12°C° 0 mm 1 m/S 725 mmHg 81%
    07:00 +12°C° 0 mm 1 m/S 725 mmHg 80%
    08:00 +14°C° 0 mm 1 m/S 725 mmHg 71%
    09:00 +16°C° 0 mm 1 m/S 725 mmHg 63%
    10:00 +20°C° 0 mm 1 m/S 725 mmHg 55%
    11:00 +21°C° 0 mm 1 m/S 725 mmHg 51%
    12:00 +22°C° 0 mm 1 m/S 725 mmHg 47%
    13:00 +23°C° 0 mm 1 m/S 725 mmHg 43%
    14:00 +22°C° 0 mm 1 m/S 724 mmHg 48%
    15:00 +21°C° 0 mm 1 m/S 724 mmHg 53%
    16:00 +21°C° 0 mm 1 m/S 723 mmHg 57%
    17:00 +19°C° 0 mm 1 m/S 723 mmHg 64%
    18:00 +16°C° 0 mm 1 m/S 723 mmHg 70%
    19:00 +14°C° 0 mm 1 m/S 723 mmHg 77%
    20:00 +13°C° 0 mm 1 m/S 724 mmHg 78%
    21:00 +13°C° 0 mm 1 m/S 724 mmHg 80%
    22:00 +12°C° 0 mm 1 m/S 724 mmHg 81%
    23:00 +12°C° 0 mm 1 m/S 724 mmHg 81%

    Morgen, 19 Oktober, Donnerstag

    Zeit Temperatur Niederschläge Wind Luftdruck Luftfeuchtigkeit
    00:00 +12°C° 0 mm 1 m/S 724 mmHg 81%
    01:00 +11°C° 0 mm 1 m/S 724 mmHg 82%
    02:00 +11°C° 0 mm 1 m/S 724 mmHg 82%
    03:00 +11°C° 0 mm 1 m/S 724 mmHg 82%
    04:00 +11°C° 0 mm 1 m/S 723 mmHg 82%
    05:00 +11°C° 0 mm 1 m/S 724 mmHg 81%
    06:00 +11°C° 0 mm 1 m/S 724 mmHg 81%
    07:00 +11°C° 0 mm 1 m/S 724 mmHg 80%
    08:00 +14°C° 0 mm 1 m/S 724 mmHg 71%
    09:00 +16°C° 0 mm 0 m/S 725 mmHg 61%
    10:00 +19°C° 0 mm 0 m/S 725 mmHg 52%
    11:00 +19°C° 0 mm 0 m/S 725 mmHg 49%
    12:00 +22°C° 0 mm 1 m/S 725 mmHg 47%
    13:00 +23°C° 0 mm 1 m/S 725 mmHg 44%
    14:00 +22°C° 0 mm 1 m/S 724 mmHg 49%
    15:00 +21°C° 0 mm 1 m/S 724 mmHg 54%
    16:00 +20°C° 0 mm 1 m/S 724 mmHg 60%
    17:00 +18°C° 0 mm 1 m/S 724 mmHg 66%
    18:00 +15°C° 0 mm 1 m/S 724 mmHg 73%
    19:00 +12°C° 0 mm 0 m/S 724 mmHg 79%
    20:00 +13°C° 0 mm 1 m/S 724 mmHg 81%
    21:00 +12°C° 0 mm 1 m/S 724 mmHg 82%
    22:00 +12°C° 0 mm 1 m/S 724 mmHg 83%
    23:00 +12°C° 0 mm 1 m/S 724 mmHg 83%

    übermorgen, 20 Oktober, Freitag

    Zeit Temperatur Niederschläge Wind Luftdruck Luftfeuchtigkeit
    00:00 +11°C° 0 mm 1 m/S 724 mmHg 84%
    01:00 +11°C° 0 mm 1 m/S 724 mmHg 84%
    02:00 +11°C° 0 mm 1 m/S 724 mmHg 84%
    03:00 +10°C° 0 mm 1 m/S 724 mmHg 84%
    04:00 +10°C° 0 mm 1 m/S 724 mmHg 84%
    05:00 +10°C° 0 mm 1 m/S 724 mmHg 83%
    06:00 +10°C° 0 mm 1 m/S 725 mmHg 81%
    07:00 +10°C° 0 mm 1 m/S 725 mmHg 80%
    08:00 +13°C° 0 mm 1 m/S 725 mmHg 71%
    09:00 +16°C° 0 mm 1 m/S 725 mmHg 61%
    10:00 +17°C° 0 mm 0 m/S 726 mmHg 52%
    11:00 +20°C° 0 mm 1 m/S 726 mmHg 50%
    12:00 +21°C° 0 mm 1 m/S 725 mmHg 48%
    13:00 +22°C° 0 mm 1 m/S 725 mmHg 45%
    14:00 +21°C° 0 mm 1 m/S 725 mmHg 51%
    15:00 +20°C° 0 mm 1 m/S 725 mmHg 56%
    16:00 +19°C° 0 mm 1 m/S 725 mmHg 61%
    17:00 +16°C° 0 mm 1 m/S 725 mmHg 68%
    18:00 +15°C° 0 mm 1 m/S 725 mmHg 75%
    19:00 +13°C° 0 mm 1 m/S 726 mmHg 82%
    20:00 +12°C° 0 mm 1 m/S 726 mmHg 83%
    21:00 +12°C° 0 mm 1 m/S 726 mmHg 84%
    22:00 +12°C° 0 mm 1 m/S 726 mmHg 85%
    23:00 +11°C° 0 mm 1 m/S 726 mmHg 86%

    21 Oktober, Samstag

    Zeit Temperatur Niederschläge Wind Luftdruck Luftfeuchtigkeit
    00:00 +11°C° 0 mm 1 m/S 726 mmHg 86%
    01:00 +11°C° 0 mm 1 m/S 726 mmHg 87%
    02:00 +11°C° 0 mm 1 m/S 726 mmHg 87%
    03:00 +11°C° 0 mm 1 m/S 726 mmHg 87%
    04:00 +10°C° 0 mm 1 m/S 726 mmHg 87%
    05:00 +10°C° 0 mm 1 m/S 726 mmHg 87%
    06:00 +10°C° 0 mm 1 m/S 727 mmHg 86%
    07:00 +10°C° 0 mm 1 m/S 727 mmHg 85%
    08:00 +13°C° 0 mm 1 m/S 727 mmHg 75%
    09:00 +15°C° 0 mm 0 m/S 727 mmHg 65%
    10:00 +18°C° 0 mm 0 m/S 727 mmHg 55%
    11:00 +19°C° 0 mm 0 m/S 727 mmHg 53%
    12:00 +19°C° 0 mm 0 m/S 727 mmHg 50%
    13:00 +22°C° 0 mm 1 m/S 726 mmHg 47%
    14:00 +21°C° 0 mm 1 m/S 726 mmHg 52%
    15:00 +20°C° 0 mm 1 m/S 726 mmHg 58%
    16:00 +19°C° 0 mm 1 m/S 725 mmHg 63%
    17:00 +18°C° 0 mm 1 m/S 725 mmHg 69%
    18:00 +15°C° 0 mm 1 m/S 725 mmHg 75%
    19:00 +12°C° 0 mm 0 m/S 725 mmHg 81%
    20:00 +13°C° 0 mm 1 m/S 725 mmHg 82%
    21:00 +12°C° 0 mm 1 m/S 725 mmHg 83%
    22:00 +12°C° 0 mm 1 m/S 725 mmHg 84%
    23:00 +12°C° 0 mm 1 m/S 725 mmHg 83%

    22 Oktober, Sonntag

    Zeit Temperatur Niederschläge Wind Luftdruck Luftfeuchtigkeit
    00:00 +12°C° 0 mm 1 m/S 725 mmHg 83%
    01:00 +12°C° 0 mm 1 m/S 724 mmHg 82%
    02:00 +12°C° 0 mm 1 m/S 724 mmHg 82%
    03:00 +12°C° 0 mm 1 m/S 724 mmHg 82%
    04:00 +11°C° 0 mm 1 m/S 724 mmHg 82%
    05:00 +11°C° 0 mm 1 m/S 724 mmHg 82%
    06:00 +11°C° 0 mm 1 m/S 724 mmHg 83%
    07:00 +11°C° 0 mm 1 m/S 724 mmHg 84%
    08:00 +13°C° 0 mm 1 m/S 724 mmHg 78%
    09:00 +15°C° 0 mm 1 m/S 724 mmHg 72%
    10:00 +16°C° 0 mm 1 m/S 724 mmHg 67%
    11:00 +16°C° 0,5 mm 1 m/S 723 mmHg 71%
    12:00 +16°C° 0,5 mm 2 m/S 723 mmHg 75%
    13:00 +15°C° 0,5 mm 2 m/S 723 mmHg 79%
    14:00 +13°C° 4,8 mm 3 m/S 723 mmHg 83%
    15:00 +11°C° 4,8 mm 3 m/S 723 mmHg 87%
    16:00 +10°C° 4,8 mm 3 m/S 722 mmHg 92%
    17:00 +9°C° 3,5 mm 3 m/S 723 mmHg 91%
    18:00 +9°C° 3,5 mm 3 m/S 723 mmHg 90%
    19:00 +8°C° 3,5 mm 3 m/S 724 mmHg 89%
    20:00 +8°C° 0,4 mm 3 m/S 724 mmHg 88%
    21:00 +8°C° 0,4 mm 3 m/S 724 mmHg 87%
    22:00 +8°C° 0,4 mm 3 m/S 724 mmHg 86%
    23:00 +8°C° 0,1 mm 3 m/S 724 mmHg 86%

    23 Oktober, Montag

    Zeit Temperatur Niederschläge Wind Luftdruck Luftfeuchtigkeit
    00:00 +8°C° 0,1 mm 3 m/S 724 mmHg 86%
    01:00 +8°C° 0,1 mm 3 m/S 724 mmHg 85%
    02:00 +7°C° 0,1 mm 3 m/S 724 mmHg 85%
    03:00 +7°C° 0,1 mm 3 m/S 724 mmHg 84%
    04:00 +7°C° 0,1 mm 3 m/S 724 mmHg 84%
    05:00 +7°C° 0,1 mm 3 m/S 724 mmHg 84%
    06:00 +7°C° 0,1 mm 3 m/S 724 mmHg 84%
    07:00 +7°C° 0,1 mm 3 m/S 725 mmHg 84%
    08:00 +7°C° 0,1 mm 3 m/S 725 mmHg 81%
    09:00 +8°C° 0,1 mm 3 m/S 725 mmHg 79%
    10:00 +9°C° 0,1 mm 3 m/S 725 mmHg 76%
    11:00 +9°C° 0,1 mm 3 m/S 725 mmHg 75%
    12:00 +9°C° 0,1 mm 3 m/S 725 mmHg 74%
    13:00 +8°C° 0,1 mm 4 m/S 725 mmHg 74%
    14:00 +9°C° 0,1 mm 3 m/S 725 mmHg 75%
    15:00 +9°C° 0,1 mm 3 m/S 725 mmHg 77%
    16:00 +9°C° 0,1 mm 2 m/S 725 mmHg 79%
    17:00 +8°C° 0,1 mm 2 m/S 725 mmHg 80%
    18:00 +8°C° 0,1 mm 2 m/S 725 mmHg 82%
    19:00 +8°C° 0,1 mm 2 m/S 726 mmHg 84%
    20:00 +8°C° 0 mm 2 m/S 726 mmHg 84%
    21:00 +7°C° 0 mm 2 m/S 726 mmHg 85%
    22:00 +7°C° 0 mm 2 m/S 726 mmHg 85%
    23:00 +7°C° 0 mm 2 m/S 726 mmHg 86%
    Mehr zeigen